Location: Cheraw
(34.6968°N, 79.8912°W)
Time: 23:17:07
(UTC+00:00)

Tiangong - Visible Passes

Search period start: 12 August 2022 00:00
Search period end: 22 August 2022 00:00
Orbit: 380 x 386 km, 41.5° (Epoch: 12 August)

Date Brightness Start Highest point End Pass type
(mag) Time Alt. Az. Time Alt. Az. Time Alt. Az.
12 Aug -0.4 09:07:35 21° SSE 09:07:35 21° SSE 09:08:58 10° SE visible
14 Aug 0.0 00:37:13 10° SSE 00:38:16 11° SE 00:39:19 10° ESE visible
14 Aug 0.5 02:11:34 10° WSW 02:12:08 14° WSW 02:12:08 14° WSW visible
15 Aug -1.8 01:12:06 10° SW 01:15:04 42° SSE 01:16:22 26° E visible
16 Aug -1.6 01:49:17 10° W 01:52:22 54° NNW 01:52:42 51° N visible
17 Aug -2.2 00:49:54 10° WSW 00:53:02 85° SSE 00:56:11 10° ENE visible
17 Aug 0.5 02:27:23 10° WNW 02:28:55 21° NW 02:28:55 21° NW visible
18 Aug -0.7 01:27:57 10° W 01:30:52 35° NNW 01:32:50 17° NE visible
19 Aug -1.4 00:28:46 10° W 00:31:51 52° NNW 00:34:55 10° ENE visible
19 Aug 0.0 02:06:32 10° WNW 02:09:02 23° N 02:09:02 23° N visible
20 Aug -0.2 01:07:28 10° WNW 01:10:12 26° N 01:12:55 10° NE visible
20 Aug 1.4 02:45:00 10° NW 02:45:18 12° NW 02:45:18 12° NW visible
21 Aug -0.2 01:46:20 10° NW 01:48:55 22° N 01:49:25 22° NNE visible
